TimePST,TemperatureF,Dew PointF,Humidity,Sea Level PressureIn,VisibilityMPH,Wind Direction,Wind SpeedMPH,Gust SpeedMPH,PrecipitationIn,Events,Conditions,WindDirDegrees,DateUTC
12:00 AM,48.0,44.1,86,29.67,-9999.0,East,8.1,-,0.02,,Unknown,80,2012-11-29 08:00:00
1:00 AM,48.6,44.6,86,29.68,-9999.0,ENE,5.8,-,N/A,,Unknown,70,2012-11-29 09:00:00
2:00 AM,48.7,44.2,84,29.65,-9999.0,ENE,6.9,-,0.02,,Unknown,70,2012-11-29 10:00:00
3:00 AM,50.4,43.7,78,29.62,-9999.0,ENE,8.1,-,N/A,,Unknown,70,2012-11-29 11:00:00
4:00 AM,52,43,62,29.60,,ENE,8.1,,,,,70,2012-11-29 12:00:00
4:00 AM,51.8,42.8,71,29.60,-9999.0,ENE,8.1,-,N/A,,Unknown,70,2012-11-29 12:00:00
5:00 AM,52.9,41.9,66,29.57,-9999.0,ENE,9.2,17.3,N/A,,Unknown,70,2012-11-29 13:00:00
6:00 AM,53.8,41.7,64,29.52,-9999.0,ENE,9.2,-,N/A,,Unknown,70,2012-11-29 14:00:00
7:00 AM,54.7,41.2,60,29.48,-9999.0,East,9.2,18.4,N/A,,Unknown,80,2012-11-29 15:00:00
8:00 AM,52.5,43.5,71,29.48,-9999.0,ENE,11.5,23.0,N/A,,Unknown,70,2012-11-29 16:00:00
9:00 AM,51.6,43.9,75,29.50,-9999.0,ENE,5.8,-,0.04,,Unknown,70,2012-11-29 17:00:00
10:00 AM,50,44,75,29.51,,ENE,5.8,,,,,60,2012-11-29 18:00:00
10:00 AM,50.2,44.4,81,29.51,-9999.0,ENE,5.8,-,0.07,,Unknown,60,2012-11-29 18:00:00
11:00 AM,51.4,42.6,72,29.53,-9999.0,East,6.9,-,N/A,,Unknown,80,2012-11-29 19:00:00
12:00 PM,49.5,44.2,82,29.55,-9999.0,East,5.8,-,N/A,,Unknown,90,2012-11-29 20:00:00
1:00 PM,47.7,45.5,92,29.57,-9999.0,East,4.6,-,0.06,,Unknown,80,2012-11-29 21:00:00
2:00 PM,48.4,45.3,89,29.57,-9999.0,ENE,3.5,-,N/A,,Unknown,70,2012-11-29 22:00:00
3:00 PM,49.3,45.1,86,29.55,-9999.0,East,5.8,-,N/A,,Unknown,80,2012-11-29 23:00:00
4:00 PM,49,45,80,29.54,,East,4.6,,,,,80,2012-11-30 00:00:00
4:00 PM,48.7,44.8,86,29.54,-9999.0,East,4.6,-,N/A,,Unknown,80,2012-11-30 00:00:00
5:00 PM,49.5,44.2,82,29.53,-9999.0,East,5.8,-,N/A,,Unknown,80,2012-11-30 01:00:00
6:00 PM,50.0,44.1,80,29.51,-9999.0,ENE,6.9,-,N/A,,Unknown,70,2012-11-30 02:00:00
7:00 PM,49.6,44.1,81,29.49,-9999.0,ENE,6.9,-,N/A,,Unknown,70,2012-11-30 03:00:00
8:00 PM,50.7,43.0,75,29.48,-9999.0,East,6.9,-,N/A,,Unknown,80,2012-11-30 04:00:00
9:00 PM,51.1,42.4,72,29.46,-9999.0,ENE,8.1,18.4,N/A,,Unknown,70,2012-11-30 05:00:00
10:00 PM,50,44,71,29.46,,ENE,6.9,,,,,70,2012-11-30 06:00:00
10:00 PM,49.8,43.5,79,29.46,-9999.0,ENE,6.9,-,N/A,,Unknown,70,2012-11-30 06:00:00
11:00 PM,48.7,43.9,83,29.45,-9999.0,ENE,6.9,-,0.05,,Unknown,70,2012-11-30 07:00:00